This is the latest recevied weather packets stored in our database for station/object KY0TEQ-13. If no packets are shown the sender has not sent any weather packets the latest 10 day(s).
| Time | Temp. | Humidity | Pressure | Rain* | Wind** | Luminosity | Snow |
|---|---|---|---|---|---|---|---|
| 1778000370 | 11.67° C | 26% | 1296.7 hPa | 0 mm | - | 364 W/m² | - |
| 1778000066 | 11.67° C | 26% | 1296.8 hPa | 0 mm | - | 361 W/m² | - |
| 1777999761 | 11.67° C | 26% | 1296.7 hPa | 0 mm | - | 346 W/m² | - |
| 1777999458 | 11.67° C | 27% | 1296.6 hPa | 0 mm | - | 351 W/m² | - |
| 1777999156 | 11.67° C | 28% | 1296.7 hPa | 0 mm | - | 318 W/m² | - |
| 1777998855 | 11.67° C | 31% | 1296.7 hPa | 0 mm | - | 323 W/m² | - |
| 1777998554 | 11.11° C | 29% | 1296.7 hPa | 0 mm | - | 385 W/m² | - |
| 1777998249 | 10.56° C | 29% | 1296.8 hPa | 0 mm | - | 278 W/m² | - |
| 1777997946 | 10.56° C | 30% | 1296.6 hPa | 0 mm | - | 222 W/m² | - |
| 1777997643 | 10.56° C | 29% | 1297 hPa | 0 mm | - | 207 W/m² | - |
| 1777997340 | 11.11° C | 29% | 1296.8 hPa | 0 mm | - | 232 W/m² | - |
| 1777997039 | 11.67° C | 28% | 1296.7 hPa | 0 mm | - | 297 W/m² | - |
| 1777996735 | 11.67° C | 28% | 1297 hPa | 0 mm | - | 372 W/m² | - |
| 1777996430 | 11.67° C | 29% | 1297.1 hPa | 0 mm | - | 546 W/m² | - |
| 1777996128 | 11.11° C | 30% | 1296.8 hPa | 0 mm | - | 587 W/m² | - |
| 1777995824 | 11.11° C | 30% | 1297.1 hPa | 0 mm | - | 321 W/m² | - |
| 1777995520 | 11.11° C | 31% | 1297.1 hPa | 0 mm | - | 485 W/m² | - |
| 1777995217 | 10.56° C | 33% | 1297 hPa | 0 mm | - | 493 W/m² | - |
| 1777994914 | 10° C | 33% | 1297 hPa | 0 mm | - | 383 W/m² | - |
| 1777994612 | 10° C | 32% | 1297.1 hPa | 0 mm | - | 147 W/m² | - |
| 1777994311 | 10° C | 35% | 1296.7 hPa | 0 mm | - | 128 W/m² | - |
| 1777994008 | 10° C | 34% | 1296.8 hPa | 0 mm | - | 192 W/m² | - |
| 1777993705 | 10° C | 35% | 1296.8 hPa | 0 mm | - | 487 W/m² | - |
| 1777993402 | 8.89° C | 36% | 1297.1 hPa | 0 mm | - | 298 W/m² | - |
| 1777993097 | 8.89° C | 36% | 1297.3 hPa | 0 mm | - | 231 W/m² | - |
* Rain latest hour (hover to see other rain measurements)
** Current wind speed in m/s (hover to see current wind gust speed)